1515736800.39,33768,10.31,73474.3,-4.43,-6.27,-6.19,0,*57
1515736801.64,33769,10.31,73470.5,-4.43,-6.31,-6.19,0,*51
1515736802.86,33770,10.31,73472.0,-4.45,-6.35,-6.23,0,*52
1515736804.1,33771,10.31,73472.0,-4.43,-6.31,-6.27,0,*55
1515736805.36,33772,10.31,73474.0,-4.43,-6.27,-6.27,0,*51
1515736806.6,33773,10.31,73468.0,-4.43,-6.31,-6.27,0,*57
1515736807.87,33774,10.31,73474.8,-4.43,-6.27,-6.19,0,*5A
1515736809.11,33775,10.31,73474.3,-4.43,-6.31,-6.27,0,*51
1515736810.35,33776,10.31,73472.5,-4.43,-6.31,-6.27,0,*52
1515736811.6,33777,10.31,73474.0,-4.43,-6.31,-6.27,0,*53
1515736812.84,33778,10.31,73474.5,-4.43,-6.31,-6.27,0,*5C
1515736814.08,33779,10.31,73472.0,-4.43,-6.31,-6.27,0,*5D
1515736815.32,33780,10.31,73474.3,-4.43,-6.31,-6.27,0,*5B
1515736816.57,33781,10.31,73478.8,-4.43,-6.31,-6.19,0,*57
1515736817.83,33782,10.31,73472.8,-4.43,-6.27,-6.19,0,*53
1515736819.1,33783,10.31,73472.8,-4.43,-6.27,-6.19,0,*52
1515736820.34,33784,10.31,73470.8,-4.43,-6.39,-6.19,0,*5A
1515736821.6,33785,10.31,73472.5,-4.43,-6.27,-6.27,0,*59
1515736822.87,33786,10.31,73472.8,-4.43,-6.27,-6.27,0,*5A
1515736824.11,33787,10.31,73476.3,-4.43,-6.31,-6.27,0,*5C
1515736825.35,33788,10.31,73474.8,-4.43,-6.31,-6.27,0,*53
1515736826.55,33789,10.31,73468.0,-4.45,-6.43,-6.31,0,*56
1515736827.79,33790,10.31,73474.3,-4.43,-6.39,-6.27,0,*52
1515736829.03,33791,10.31,73476.8,-4.43,-6.39,-6.27,0,*53
1515736830.27,33792,10.31,73474.5,-4.43,-6.31,-6.27,0,*58
1515736831.51,33793,10.31,73474.0,-4.43,-6.39,-6.27,0,*51
1515736832.75,33794,10.31,73468.3,-4.43,-6.43,-6.27,0,*5B
1515736833.99,33795,10.31,73472.0,-4.43,-6.39,-6.27,0,*57
1515736835.23,33796,10.31,73476.0,-4.43,-6.31,-6.27,0,*5C
1515736836.47,33797,10.31,73472.3,-4.43,-6.39,-6.27,0,*55
1515736837.69,33798,10.31,73474.8,-4.43,-6.39,-6.31,0,*5D
1515736838.93,33799,10.31,73472.8,-4.43,-6.39,-6.27,0,*5B
1515736840.15,33800,10.31,73470.0,-4.43,-6.39,-6.31,0,*53
1515736841.37,33801,10.31,73476.8,-4.41,-6.35,-6.23,0,*5F
1515736842.58,33802,10.31,73472.5,-4.41,-6.35,-6.23,0,*5C
1515736843.8,33803,10.31,73474.0,-4.41,-6.35,-6.23,0,*5D
1515736845.03,33804,10.31,73474.8,-4.41,-6.35,-6.27,0,*5E
1515736846.24,33805,10.31,73476.0,-4.41,-6.39,-6.27,0,*53
1515736847.45,33806,10.31,73472.8,-4.41,-6.39,-6.23,0,*54
1515736848.68,33807,10.31,73472.0,-4.41,-6.35,-6.27,0,*5D
1515736849.89,33808,10.31,73468.3,-4.41,-6.39,-6.23,0,*5A
1515736851.11,33809,10.31,73470.8,-4.41,-6.35,-6.23,0,*57
1515736852.33,33810,10.31,73470.3,-4.41,-6.35,-6.23,0,*5F
1515736853.55,33811,10.31,73468.3,-4.41,-6.35,-6.27,0,*5A
1515736854.76,33812,10.31,73474.8,-4.41,-6.39,-6.23,0,*51
1515736855.98,33813,10.31,73472.3,-4.41,-6.39,-6.27,0,*54
1515736857.19,33814,10.31,73474.5,-4.41,-6.39,-6.27,0,*53
1515736858.41,33815,10.31,73470.8,-4.41,-6.47,-6.23,0,*5F
1515736859.62,33816,10.31,73472.3,-4.41,-6.39,-6.23,0,*55
1515736860.83,33817,10.31,73472.3,-4.41,-6.47,-6.23,0,*5D
1515736862.05,33818,10.31,73472.8,-4.41,-6.39,-6.27,0,*5F
1515736863.26,33819,10.31,73474.5,-4.41,-6.39,-6.27,0,*5E
1515736864.46,33820,10.31,73470.8,-4.41,-6.39,-6.35,0,*57
1515736865.67,33821,10.31,73474.5,-4.41,-6.47,-6.27,0,*5C
1515736866.89,33822,10.31,73472.3,-4.43,-6.39,-6.31,0,*53
1515736868.11,33823,10.31,73472.8,-4.43,-6.43,-6.31,0,*5F
1515736869.33,33824,10.31,73472.0,-4.43,-6.43,-6.39,0,*50
1515736870.55,33825,10.31,73474.0,-4.43,-6.43,-6.39,0,*51
1515736871.79,33826,10.31,73470.8,-4.43,-6.51,-6.27,0,*5E
1515736873.01,33827,10.31,73470.8,-4.43,-6.43,-6.31,0,*5B
1515736874.24,33828,10.31,73474.5,-4.43,-6.43,-6.31,0,*54
1515736875.45,33829,10.31,73470.8,-4.41,-6.47,-6.23,0,*50
1515736876.64,33830,10.31,73478.0,-4.41,-6.39,-6.35,0,*56
1515736877.86,33831,10.31,73472.0,-4.39,-6.47,-6.35,0,*51
1515736879.05,33832,10.31,73472.0,-4.41,-6.47,-6.35,0,*5D
1515736880.25,33833,10.31,73474.5,-4.41,-6.47,-6.35,0,*5C
1515736881.47,33834,10.31,73474.3,-4.43,-6.51,-6.39,0,*52
1515736882.66,33835,10.31,73474.5,-4.41,-6.39,-6.35,0,*53
1515736883.86,33836,10.31,73472.3,-4.41,-6.51,-6.39,0,*52
1515736885.05,33837,10.31,73472.8,-4.41,-6.47,-6.39,0,*54
1515736886.24,33838,10.31,73474.3,-4.41,-6.47,-6.35,0,*57
1515736887.43,33839,10.31,73474.8,-4.41,-6.47,-6.39,0,*5A
1515736888.64,33840,10.31,73478.5,-4.39,-6.39,-6.35,0,*5E
1515736889.83,33841,10.31,73472.8,-4.41,-6.47,-6.39,0,*55
1515736891.04,33842,10.31,73476.3,-4.39,-6.47,-6.39,0,*59
1515736892.24,33843,10.31,73472.3,-4.41,-6.47,-6.47,0,*5E
1515736893.43,33844,10.31,73478.5,-4.41,-6.39,-6.39,0,*59
1515736894.62,33845,10.31,73472.5,-4.41,-6.47,-6.39,0,*51
1515736895.81,33846,10.31,73474.8,-4.41,-6.39,-6.35,0,*57
1515736897.0,33847,10.31,73472.8,-4.41,-6.47,-6.39,0,*53
1515736898.2,33848,10.31,73474.0,-4.41,-6.39,-6.47,0,*5C
1515736899.39,33849,10.31,73474.3,-4.41,-6.51,-6.47,0,*53
1515736900.59,33850,10.31,73474.5,-4.41,-6.51,-6.47,0,*5B
1515736901.79,33851,10.31,73472.8,-4.41,-6.47,-6.47,0,*5D
1515736902.98,33852,10.31,73472.5,-4.41,-6.39,-6.47,0,*57
1515736904.18,33853,10.31,73470.8,-4.41,-6.47,-6.47,0,*5F
1515736905.37,33854,10.31,73470.8,-4.41,-6.39,-6.51,0,*56
1515736906.56,33855,10.31,73474.0,-4.41,-6.39,-6.47,0,*50
1515736907.76,33856,10.31,73472.0,-4.41,-6.39,-6.51,0,*54
1515736908.95,33857,10.31,73474.5,-4.41,-6.39,-6.47,0,*52
1515736910.14,33858,10.31,73474.0,-4.41,-6.39,-6.47,0,*5D
1515736911.34,33859,10.31,73474.3,-4.41,-6.39,-6.51,0,*5B
1515736912.53,33860,10.31,73474.0,-4.41,-6.39,-6.51,0,*51
1515736913.72,33861,10.31,73472.0,-4.41,-6.39,-6.51,0,*50
1515736914.92,33862,10.31,73476.3,-4.41,-6.39,-6.51,0,*53
1515736916.11,33863,10.31,73474.3,-4.41,-6.39,-6.51,0,*52
1515736917.3,33864,10.31,73472.0,-4.41,-6.39,-6.47,0,*52
1515736918.52,33865,10.31,73476.3,-4.39,-6.39,-6.51,0,*5B
1515736919.73,33866,10.31,73472.5,-4.39,-6.47,-6.47,0,*56
1515736920.93,33867,10.31,73474.0,-4.41,-6.39,-6.51,0,*56
1515736922.14,33868,10.31,73474.5,-4.39,-6.39,-6.51,0,*56
1515736923.34,33869,10.31,73476.5,-4.41,-6.35,-6.51,0,*54
1515736924.55,33870,10.31,73472.0,-4.39,-6.39,-6.51,0,*5F
1515736925.75,33871,10.31,73472.5,-4.41,-6.39,-6.51,0,*51
1515736926.94,33872,10.31,73476.0,-4.41,-6.39,-6.51,0,*52
1515736928.13,33873,10.31,73474.8,-4.41,-6.39,-6.59,0,*5B
1515736929.34,33874,10.31,73474.3,-4.41,-6.35,-6.51,0,*58
1515736930.53,33875,10.31,73474.5,-4.41,-6.47,-6.47,0,*5B
1515736931.75,33876,10.31,73474.0,-4.39,-6.35,-6.51,0,*55
1515736932.95,33877,10.31,73472.0,-4.41,-6.35,-6.51,0,*5B
1515736934.17,33878,10.31,73474.8,-4.39,-6.35,-6.51,0,*5B
1515736935.37,33879,10.31,73476.0,-4.41,-6.35,-6.51,0,*55
1515736936.58,33880,10.31,73476.3,-4.39,-6.39,-6.59,0,*58
1515736937.78,33881,10.31,73472.0,-4.41,-6.39,-6.47,0,*59
1515736938.99,33882,10.31,73476.3,-4.39,-6.39,-6.51,0,*52
1515736940.2,33883,10.31,73474.3,-4.39,-6.39,-6.51,0,*53
1515736941.4,33884,10.31,73472.0,-4.41,-6.39,-6.59,0,*53
1515736942.61,33885,10.31,73474.8,-4.39,-6.47,-6.59,0,*54
1515736943.82,33886,10.31,73478.3,-4.39,-6.39,-6.51,0,*56
1515736945.02,33887,10.31,73472.5,-4.41,-6.39,-6.47,0,*5F
1515736946.23,33888,10.31,73472.5,-4.39,-6.39,-6.51,0,*58
1515736947.43,33889,10.31,73474.5,-4.41,-6.35,-6.47,0,*5D
1515736948.65,33890,10.31,73478.0,-4.39,-6.35,-6.51,0,*5D
1515736949.85,33891,10.31,73474.8,-4.41,-6.35,-6.51,0,*53
1515736951.05,33892,10.31,73472.8,-4.41,-6.35,-6.47,0,*57
1515736952.28,33893,10.31,73472.0,-4.39,-6.27,-6.39,0,*53
1515736953.5,33894,10.31,73472.8,-4.41,-6.23,-6.47,0,*56
1515736954.72,33895,10.31,73474.0,-4.41,-6.23,-6.35,0,*52
1515736955.94,33896,10.31,73470.8,-4.41,-6.13,-6.23,0,*55
1515736957.18,33897,10.31,73468.3,-4.41,-6.23,-6.23,0,*57
1515736958.39,33898,10.31,73474.3,-4.41,-6.23,-6.09,0,*50
1515736959.6,33899,10.31,73470.5,-4.41,-6.27,-6.13,0,*5E
1515736960.84,33900,10.31,73468.3,-4.39,-6.23,-6.13,0,*54
1515736962.07,33901,10.31,73470.3,-4.39,-6.39,-6.27,0,*59
1515736963.31,33902,10.31,73474.0,-4.39,-6.39,-6.27,0,*5A
1515736964.5,33903,10.31,73474.8,-4.41,-6.35,-6.39,0,*57
1515736965.7,33904,10.31,73474.3,-4.41,-6.35,-6.39,0,*50
1515736966.92,33905,10.31,73470.8,-4.41,-6.23,-6.35,0,*5A
1515736968.16,33906,10.31,73470.3,-4.41,-6.27,-6.27,0,*5E
1515736969.4,33907,10.31,73468.0,-4.41,-6.23,-6.27,0,*5B
1515736970.66,33908,10.31,73466.0,-4.39,-6.23,-6.23,0,*5F
1515736971.85,33909,10.31,73466.3,-4.41,-6.09,-6.13,0,*5A
1515736973.07,33910,10.31,73468.0,-4.39,-6.09,-6.09,0,*56
1515736974.26,33911,10.31,73470.0,-4.41,-6.13,-6.13,0,*58
1515736975.45,33912,10.31,73470.3,-4.41,-6.13,-6.13,0,*5B
1515736976.68,33913,10.31,73472.3,-4.39,-6.23,-6.13,0,*56
1515736977.92,33914,10.31,73472.0,-4.39,-6.27,-6.13,0,*55
1515736979.15,33915,10.31,73468.5,-4.41,-6.27,-6.23,0,*58
1515736980.39,33916,10.31,73464.8,-4.41,-6.27,-6.23,0,*5B
1515736981.62,33917,10.31,73464.5,-4.41,-6.27,-6.23,0,*5A
1515736982.89,33918,10.31,73466.5,-4.39,-6.23,-6.27,0,*5A
1515736984.11,33919,10.31,73460.3,-4.41,-6.35,-6.27,0,*53
1515736985.33,33920,10.31,73470.0,-4.39,-6.35,-6.35,0,*55
1515736986.54,33921,10.31,73468.3,-4.41,-6.39,-6.27,0,*54
1515736987.74,33922,10.31,73464.5,-4.41,-6.35,-6.35,0,*58
1515736988.97,33923,10.31,73466.8,-4.41,-6.35,-6.27,0,*5A
1515736990.16,33924,10.31,73464.0,-4.41,-6.47,-6.47,0,*5E
1515736991.35,33925,10.31,73462.3,-4.41,-6.39,-6.39,0,*5F
1515736992.59,33926,10.31,73466.8,-4.39,-6.35,-6.27,0,*50
1515736993.81,33927,10.31,73466.0,-4.41,-6.39,-6.27,0,*52
1515736995.02,33928,10.31,73474.0,-4.39,-6.47,-6.39,0,*54
1515736996.21,33929,10.31,73470.8,-4.41,-6.39,-6.35,0,*5F
1515736997.4,33930,10.31,73468.8,-4.41,-6.39,-6.39,0,*5B
1515736998.59,33931,10.31,73470.8,-4.41,-6.47,-6.39,0,*53
1515736999.78,33932,10.31,73472.0,-4.41,-6.39,-6.39,0,*59
1515737000.98,33933,10.31,73468.0,-4.41,-6.51,-6.47,0,*5F
1515737002.18,33934,10.31,73470.5,-4.41,-6.51,-6.51,0,*5F
1515737003.38,33935,10.31,73470.3,-4.41,-6.51,-6.51,0,*5E
1515737004.58,33936,10.31,73474.0,-4.41,-6.51,-6.47,0,*5A
1515737005.78,33937,10.31,73470.3,-4.41,-6.51,-6.47,0,*5B
1515737006.98,33938,10.31,73470.5,-4.41,-6.47,-6.47,0,*53
1515737008.18,33939,10.31,73472.0,-4.41,-6.51,-6.51,0,*52
1515737009.38,33940,10.31,73472.3,-4.41,-6.51,-6.47,0,*5B
1515737010.58,33941,10.31,73472.3,-4.41,-6.51,-6.47,0,*5A
1515737011.77,33942,10.31,73472.8,-4.41,-6.39,-6.47,0,*57
1515737012.97,33943,10.31,73468.0,-4.41,-6.51,-6.47,0,*58
1515737014.16,33944,10.31,73468.5,-4.41,-6.47,-6.39,0,*51
1515737015.35,33945,10.31,73466.8,-4.41,-6.47,-6.39,0,*50
1515737016.55,33946,10.31,73470.0,-4.41,-6.51,-6.39,0,*54
1515737017.76,33947,10.31,73470.8,-4.39,-6.47,-6.39,0,*5D
1515737019.0,33948,10.31,73472.3,-4.43,-6.63,-6.51,0,*57
1515737020.2,33949,10.31,73470.3,-4.41,-6.51,-6.51,0,*55
1515737021.39,33950,10.31,73468.0,-4.41,-6.59,-6.47,0,*52
1515737022.63,33951,10.31,73468.3,-4.39,-6.63,-6.51,0,*52
1515737023.82,33952,10.31,73474.3,-4.41,-6.59,-6.47,0,*50
1515737025.06,33953,10.31,73470.5,-4.43,-6.63,-6.55,0,*59
1515737026.29,33954,10.31,73468.8,-4.43,-6.51,-6.55,0,*5F
1515737027.52,33955,10.31,73474.8,-4.43,-6.63,-6.55,0,*5F
1515737028.74,33956,10.31,73474.5,-4.43,-6.69,-6.55,0,*56
1515737029.98,33957,10.31,73472.3,-4.43,-6.63,-6.55,0,*5D
1515737031.17,33958,10.31,73468.8,-4.41,-6.59,-6.47,0,*5A
1515737032.37,33959,10.31,73466.3,-4.41,-6.59,-6.47,0,*5B
1515737033.56,33960,10.31,73468.8,-4.41,-6.47,-6.51,0,*59
1515737034.76,33961,10.31,73472.3,-4.41,-6.51,-6.47,0,*58
1515737035.98,33962,10.31,73470.5,-4.43,-6.55,-6.55,0,*5E
1515737037.22,33963,10.31,73466.5,-4.43,-6.63,-6.55,0,*5A
1515737038.43,33964,10.31,73466.8,-4.43,-6.69,-6.55,0,*57
1515737039.63,33965,10.31,73474.8,-4.41,-6.59,-6.47,0,*54
1515737040.85,33966,10.31,73474.5,-4.41,-6.63,-6.51,0,*59
1515737042.06,33967,10.31,73470.3,-4.41,-6.63,-6.59,0,*50
1515737043.26,33968,10.31,73470.0,-4.41,-6.51,-6.59,0,*5E
1515737044.5,33969,10.31,73470.3,-4.43,-6.63,-6.55,0,*50
1515737045.71,33970,10.31,73472.8,-4.43,-6.69,-6.69,0,*5D
1515737046.94,33971,10.31,73476.5,-4.43,-6.69,-6.63,0,*56
1515737048.18,33972,10.31,73468.8,-4.43,-6.69,-6.63,0,*55
1515737049.37,33973,10.31,73472.5,-4.45,-6.73,-6.69,0,*53
1515737050.59,33974,10.31,73472.0,-4.41,-6.63,-6.59,0,*52
1515737051.78,33975,10.31,73472.8,-4.41,-6.59,-6.59,0,*5A
1515737053.0,33976,10.31,73476.0,-4.41,-6.63,-6.59,0,*50
1515737054.24,33977,10.31,73474.8,-4.41,-6.63,-6.63,0,*58
1515737055.46,33978,10.31,73474.8,-4.41,-6.73,-6.63,0,*56
1515737056.7,33979,10.31,73472.3,-4.43,-6.77,-6.63,0,*51
1515737057.92,33980,10.31,73470.3,-4.43,-6.77,-6.69,0,*5D
1515737059.13,33981,10.31,73468.8,-4.41,-6.63,-6.59,0,*58
1515737060.34,33982,10.31,73472.5,-4.43,-6.69,-6.69,0,*50
1515737061.56,33983,10.31,73464.0,-4.43,-6.77,-6.77,0,*51
1515737062.77,33984,10.31,73472.3,-4.43,-6.77,-6.69,0,*59
1515737064.0,33985,10.31,73472.8,-4.43,-6.77,-6.81,0,*5E
1515737065.21,33986,10.31,73472.0,-4.43,-6.77,-6.69,0,*5B
1515737066.48,33987,10.31,73472.0,-4.43,-6.63,-6.63,0,*55
1515737067.74,33988,10.31,73468.5,-4.43,-6.63,-6.63,0,*5A
1515737068.98,33989,10.31,73470.8,-4.43,-6.55,-6.63,0,*5E
1515737070.21,33990,10.31,73464.0,-4.43,-6.51,-6.51,0,*53
1515737071.42,33991,10.31,73466.8,-4.43,-6.39,-6.39,0,*52
1515737072.66,33992,10.31,73466.8,-4.43,-6.43,-6.27,0,*53
1515737073.88,33993,10.31,73470.0,-4.43,-6.39,-6.31,0,*58
1515737075.1,33994,10.31,73470.0,-4.43,-6.43,-6.31,0,*52
1515737076.32,33995,10.31,73472.5,-4.41,-6.35,-6.23,0,*53
1515737077.56,33996,10.31,73472.3,-4.41,-6.27,-6.27,0,*57
1515737078.79,33997,10.31,73472.5,-4.41,-6.27,-6.23,0,*52
1515737080.04,33998,10.31,73468.5,-4.43,-6.51,-6.27,0,*5A
1515737081.28,33999,10.31,73464.0,-4.43,-6.39,-6.19,0,*58
1515737082.52,34000,10.31,73468.5,-4.43,-6.39,-6.27,0,*5B
1515737083.76,34001,10.31,73476.5,-4.43,-6.43,-6.27,0,*57
1515737084.96,34002,10.31,73468.3,-4.41,-6.51,-6.35,0,*56
1515737086.16,34003,10.31,73468.5,-4.41,-6.59,-6.35,0,*5F
1515737087.36,34004,10.31,73476.0,-4.41,-6.59,-6.47,0,*5D
1515737088.6,34005,10.31,73470.8,-4.43,-6.63,-6.55,0,*54
1515737089.82,34006,10.31,73470.3,-4.43,-6.77,-6.55,0,*52
1515737091.03,34007,10.31,73474.0,-4.41,-6.63,-6.59,0,*58
1515737092.24,34008,10.31,73474.3,-4.43,-6.69,-6.77,0,*53
1515737093.44,34009,10.31,73470.0,-4.41,-6.77,-6.77,0,*5F
1515737094.66,34010,10.31,73470.0,-4.43,-6.77,-6.77,0,*55
1515737095.88,34011,10.31,73468.8,-4.43,-6.77,-6.81,0,*5D
1515737097.11,34012,10.31,73472.3,-4.43,-6.81,-6.81,0,*57
1515737098.33,34013,10.31,73472.3,-4.43,-6.77,-6.77,0,*56
1515737099.55,34014,10.31,73472.8,-4.43,-6.69,-6.81,0,*57
1515737100.77,34015,10.31,73470.5,-4.43,-6.69,-6.81,0,*56
1515737101.99,34016,10.31,73474.0,-4.43,-6.77,-6.81,0,*5A
1515737103.22,34017,10.31,73468.5,-4.43,-6.77,-6.81,0,*5B
1515737104.44,34018,10.31,73476.3,-4.43,-6.77,-6.81,0,*54
1515737105.67,34019,10.31,73476.0,-4.43,-6.77,-6.81,0,*55
1515737106.89,34020,10.31,73474.8,-4.43,-6.81,-6.89,0,*5E
1515737108.11,34021,10.31,73472.3,-4.43,-6.81,-6.89,0,*5F
1515737109.3,34022,10.31,73472.0,-4.41,-6.73,-6.85,0,*5F
1515737110.49,34023,10.31,73472.3,-4.41,-6.73,-6.85,0,*5E
1515737111.71,34024,10.31,73474.0,-4.43,-6.77,-6.89,0,*53
1515737112.92,34025,10.31,73470.3,-4.43,-6.69,-6.89,0,*5D
1515737114.16,34026,10.31,73474.5,-4.43,-6.63,-6.81,0,*5C
1515737115.39,34027,10.31,73474.3,-4.43,-6.63,-6.69,0,*5B
1515737116.64,34028,10.31,73478.5,-4.43,-6.55,-6.63,0,*5B
1515737117.88,34029,10.31,73474.3,-4.43,-6.55,-6.63,0,*5A
1515737119.13,34030,10.31,73476.0,-4.43,-6.51,-6.63,0,*56
1515737120.36,34031,10.31,73478.5,-4.43,-6.63,-6.69,0,*5C
1515737121.58,34032,10.31,73472.5,-4.43,-6.55,-6.69,0,*5A
1515737122.81,34033,10.31,73474.8,-4.43,-6.63,-6.69,0,*5E
1515737124.05,34034,10.31,73476.5,-4.43,-6.63,-6.81,0,*5F
1515737125.27,34035,10.31,73474.8,-4.43,-6.55,-6.81,0,*5B
1515737126.47,34036,10.31,73472.0,-4.45,-6.55,-6.81,0,*5E
1515737127.7,34037,10.31,73476.0,-4.43,-6.51,-6.81,0,*5D
1515737128.94,34038,10.31,73470.3,-4.43,-6.31,-6.63,0,*58
1515737130.16,34039,10.31,73468.8,-4.43,-6.39,-6.55,0,*54
1515737131.38,34040,10.31,73468.3,-4.43,-6.43,-6.55,0,*57
1515737132.62,34041,10.31,73470.5,-4.43,-6.55,-6.63,0,*54
1515737133.87,34042,10.31,73470.3,-4.43,-6.55,-6.63,0,*57
1515737135.13,34043,10.31,73468.3,-4.43,-6.63,-6.63,0,*53
1515737136.36,34044,10.31,73470.0,-4.43,-6.63,-6.69,0,*5E
1515737137.57,34045,10.31,73468.5,-4.43,-6.73,-6.85,0,*5C
1515737138.79,34046,10.31,73468.0,-4.43,-6.69,-6.81,0,*50
1515737140.01,34047,10.31,73470.5,-4.43,-6.69,-6.81,0,*51
1515737141.23,34048,10.31,73474.3,-4.43,-6.69,-6.81,0,*5E
1515737142.47,34049,10.31,73470.3,-4.43,-6.63,-6.81,0,*55
1515737143.67,34050,10.31,73472.8,-4.45,-6.59,-6.81,0,*52
1515737144.92,34051,10.31,73476.0,-4.43,-6.51,-6.63,0,*51
1515737146.17,34052,10.31,73474.0,-4.43,-6.51,-6.63,0,*52
1515737147.39,34053,10.31,73474.0,-4.43,-6.51,-6.55,0,*56
1515737148.61,34054,10.31,73468.3,-4.43,-6.55,-6.51,0,*51
1515737149.83,34055,10.31,73476.3,-4.43,-6.55,-6.51,0,*50
1515737151.05,34056,10.31,73472.8,-4.43,-6.55,-6.39,0,*5D
1515737152.27,34057,10.31,73472.8,-4.43,-6.55,-6.51,0,*52
1515737153.49,34058,10.31,73476.0,-4.43,-6.55,-6.51,0,*5D
1515737154.73,34059,10.31,73474.3,-4.43,-6.55,-6.63,0,*5D
1515737155.97,34060,10.31,73472.5,-4.43,-6.55,-6.63,0,*57
1515737157.19,34061,10.31,73470.5,-4.43,-6.55,-6.55,0,*53
1515737158.41,34062,10.31,73470.3,-4.43,-6.55,-6.55,0,*50
1515737159.61,34063,10.31,73472.3,-4.41,-6.59,-6.59,0,*53
1515737160.83,34064,10.31,73470.0,-4.41,-6.59,-6.63,0,*5D
1515737162.03,34065,10.31,73474.3,-4.41,-6.51,-6.59,0,*5D
1515737163.27,34066,10.31,73470.5,-4.43,-6.55,-6.63,0,*51
1515737164.5,34067,10.31,73470.0,-4.43,-6.51,-6.55,0,*51
1515737165.72,34068,10.31,73468.0,-4.43,-6.51,-6.55,0,*5E
1515737166.94,34069,10.31,73468.5,-4.43,-6.55,-6.55,0,*5B
1515737168.13,34070,10.31,73472.0,-4.45,-6.55,-6.59,0,*59
1515737169.37,34071,10.31,73474.0,-4.43,-6.63,-6.69,0,*58
1515737170.56,34072,10.31,73472.0,-4.45,-6.59,-6.69,0,*54
1515737171.75,34073,10.31,73472.5,-4.41,-6.47,-6.51,0,*55
1515737172.97,34074,10.31,73472.5,-4.43,-6.55,-6.55,0,*57
1515737174.19,34075,10.31,73472.5,-4.43,-6.51,-6.55,0,*52
1515737175.39,34076,10.31,73468.8,-4.45,-6.59,-6.59,0,*53
1515737176.63,34077,10.31,73472.5,-4.43,-6.55,-6.63,0,*51
1515737177.85,34078,10.31,73470.8,-4.43,-6.55,-6.69,0,*54
1515737179.09,34079,10.31,73478.8,-4.43,-6.55,-6.63,0,*5F
1515737180.28,34080,10.31,73474.8,-4.41,-6.59,-6.69,0,*5D
1515737181.51,34081,10.31,73472.3,-4.41,-6.51,-6.63,0,*5E
1515737182.73,34082,10.31,73476.8,-4.41,-6.59,-6.63,0,*55
1515737183.94,34083,10.31,73472.0,-4.43,-6.55,-6.69,0,*50
1515737185.2,34084,10.31,73472.5,-4.43,-6.63,-6.63,0,*58
1515737186.44,34085,10.31,73470.8,-4.43,-6.63,-6.69,0,*53
1515737187.67,34086,10.31,73472.0,-4.43,-6.63,-6.69,0,*50
1515737188.87,34087,10.31,73472.0,-4.41,-6.59,-6.59,0,*59
1515737190.06,34088,10.31,73474.3,-4.41,-6.59,-6.73,0,*5E
1515737191.3,34089,10.31,73474.5,-4.41,-6.63,-6.63,0,*57
1515737192.52,34090,10.31,73470.3,-4.41,-6.51,-6.63,0,*5E
1515737193.74,34091,10.31,73472.0,-4.43,-6.55,-6.69,0,*53
1515737194.95,34092,10.31,73470.3,-4.43,-6.55,-6.69,0,*50
1515737196.17,34093,10.31,73466.3,-4.43,-6.55,-6.77,0,*5E
1515737197.4,34094,10.31,73468.8,-4.43,-6.63,-6.77,0,*5C
1515737198.64,34095,10.31,73464.5,-4.43,-6.63,-6.69,0,*52
1515737199.85,34096,10.31,73470.3,-4.43,-6.55,-6.55,0,*5B
1515737201.05,34097,10.31,73460.5,-4.41,-6.47,-6.51,0,*5F
1515737202.24,34098,10.31,73462.3,-4.41,-6.39,-6.51,0,*59
1515737203.44,34099,10.31,73464.8,-4.41,-6.39,-6.51,0,*58
1515737204.65,34100,10.31,73470.3,-4.39,-6.39,-6.51,0,*56
1515737205.84,34101,10.31,73466.5,-4.41,-6.47,-6.51,0,*51
1515737207.04,34102,10.31,73468.0,-4.41,-6.47,-6.51,0,*52
1515737208.23,34103,10.31,73464.3,-4.41,-6.47,-6.51,0,*53
1515737209.43,34104,10.31,73470.5,-4.41,-6.39,-6.47,0,*5A
1515737210.62,34105,10.31,73472.8,-4.41,-6.39,-6.47,0,*5B
1515737211.81,34106,10.31,73472.8,-4.41,-6.47,-6.59,0,*5E
1515737213.05,34107,10.31,73468.5,-4.43,-6.39,-6.63,0,*5D
1515737214.27,34108,10.31,73470.5,-4.43,-6.39,-6.51,0,*53
1515737215.49,34109,10.31,73466.3,-4.43,-6.39,-6.51,0,*52
1515737216.7,34110,10.31,73464.5,-4.43,-6.39,-6.43,0,*59
1515737217.92,34111,10.31,73470.5,-4.43,-6.43,-6.55,0,*52
1515737219.14,34112,10.31,73468.0,-4.41,-6.27,-6.47,0,*52
1515737220.38,34113,10.31,73474.8,-4.39,-6.27,-6.47,0,*5C
1515737221.58,34114,10.31,73470.8,-4.41,-6.35,-6.51,0,*50
1515737222.77,34115,10.31,73468.3,-4.41,-6.39,-6.51,0,*5D
1515737223.97,34116,10.31,73472.0,-4.41,-6.35,-6.51,0,*52
1515737225.16,34117,10.31,73470.0,-4.41,-6.39,-6.59,0,*57
1515737226.36,34118,10.31,73474.3,-4.41,-6.39,-6.51,0,*50
1515737227.55,34119,10.31,73470.8,-4.41,-6.47,-6.59,0,*50
1515737228.79,34120,10.31,73468.3,-4.43,-6.43,-6.63,0,*55
1515737230.0,34121,10.31,73468.0,-4.41,-6.35,-6.51,0,*56
1515737231.21,34122,10.31,73472.0,-4.43,-6.39,-6.55,0,*5F
1515737232.43,34123,10.31,73472.5,-4.43,-6.43,-6.55,0,*53
1515737233.65,34124,10.31,73472.0,-4.43,-6.43,-6.55,0,*54
1515737234.89,34125,10.31,73472.3,-4.43,-6.43,-6.63,0,*50
1515737236.11,34126,10.31,73474.5,-4.41,-6.39,-6.63,0,*5C
1515737237.32,34127,10.31,73470.3,-4.43,-6.43,-6.69,0,*58
1515737238.54,34128,10.31,73468.3,-4.43,-6.51,-6.69,0,*54
1515737239.79,34129,10.31,73472.3,-4.43,-6.51,-6.63,0,*5F
1515737241.03,34130,10.31,73474.3,-4.43,-6.43,-6.63,0,*54
1515737242.25,34131,10.31,73474.3,-4.41,-6.39,-6.63,0,*5A
1515737243.47,34132,10.31,73474.5,-4.41,-6.47,-6.63,0,*50
1515737244.68,34133,10.31,73470.8,-4.41,-6.39,-6.63,0,*58
1515737245.9,34134,10.31,73472.8,-4.43,-6.51,-6.69,0,*59
1515737247.13,34135,10.31,73474.0,-4.43,-6.43,-6.81,0,*5D
1515737248.35,34136,10.31,73474.3,-4.43,-6.51,-6.81,0,*5D
1515737249.57,34137,10.31,73478.3,-4.43,-6.51,-6.77,0,*55
1515737250.79,34138,10.31,73476.8,-4.43,-6.43,-6.77,0,*59
1515737252.01,34139,10.31,73472.0,-4.43,-6.43,-6.77,0,*58
1515737253.2,34140,10.31,73474.0,-4.41,-6.47,-6.77,0,*50
1515737254.4,34141,10.31,73476.8,-4.41,-6.35,-6.73,0,*50
1515737255.59,34142,10.31,73474.0,-4.41,-6.39,-6.73,0,*5F
1515737256.78,34143,10.31,73478.5,-4.41,-6.39,-6.73,0,*5E
1515737257.98,34144,10.31,73474.5,-4.41,-6.35,-6.73,0,*55
1515737259.19,34145,10.31,73476.3,-4.43,-6.39,-6.77,0,*5E
1515737260.41,34146,10.31,73476.8,-4.43,-6.43,-6.77,0,*50
1515737261.63,34147,10.31,73472.0,-4.43,-6.43,-6.81,0,*58
1515737262.85,34148,10.31,73470.8,-4.43,-6.39,-6.81,0,*5A
1515737264.07,34149,10.31,73472.0,-4.43,-6.43,-6.77,0,*5F
1515737265.3,34150,10.31,73474.5,-4.43,-6.27,-6.69,0,*5A
1515737266.57,34151,10.31,73470.5,-4.43,-6.27,-6.63,0,*51
1515737267.78,34152,10.31,73474.5,-4.43,-6.31,-6.69,0,*5F
1515737269.04,34153,10.31,73474.8,-4.43,-6.27,-6.63,0,*53
1515737270.28,34154,10.31,73476.5,-4.43,-6.27,-6.69,0,*5E
1515737271.51,34155,10.31,73478.5,-4.43,-6.27,-6.69,0,*5F
1515737272.78,34156,10.31,73476.5,-4.43,-6.27,-6.63,0,*56
1515737274.02,34157,10.31,73474.5,-4.43,-6.27,-6.55,0,*52
1515737275.26,34158,10.31,73472.5,-4.43,-6.31,-6.63,0,*5F
1515737276.48,34159,10.31,73472.3,-4.41,-6.23,-6.59,0,*56
1515737277.72,34160,10.31,73468.3,-4.43,-6.27,-6.55,0,*56
1515737278.92,34161,10.31,73466.3,-4.41,-6.09,-6.51,0,*5D
1515737280.14,34162,10.31,73470.0,-4.43,-6.01,-6.51,0,*54
1515737281.36,34163,10.31,73468.0,-4.43,-6.09,-6.51,0,*5D
1515737282.58,34164,10.31,73468.8,-4.43,-6.01,-6.43,0,*51
1515737283.8,34165,10.31,73466.5,-4.43,-6.13,-6.51,0,*50
1515737285.02,34166,10.31,73470.5,-4.43,-6.09,-6.43,0,*5B
1515737286.21,34167,10.31,73472.5,-4.41,-6.05,-6.35,0,*55
1515737287.41,34168,10.31,73464.5,-4.41,-6.05,-6.35,0,*5A
1515737288.62,34169,10.31,73466.0,-4.43,-6.09,-6.39,0,*59
1515737289.87,34170,10.31,73460.5,-4.43,-6.09,-6.27,0,*5E
1515737291.09,34171,10.31,73462.0,-4.43,-6.09,-6.31,0,*58
1515737292.31,34172,10.31,73462.3,-4.43,-6.09,-6.39,0,*53
1515737293.53,34173,10.31,73462.8,-4.43,-6.13,-6.39,0,*59
1515737294.74,34174,10.31,73460.8,-4.41,-6.05,-6.27,0,*54
1515737295.98,34175,10.31,73462.0,-4.43,-6.09,-6.27,0,*5B
1515737297.23,34176,10.31,73462.8,-4.43,-6.09,-6.19,0,*55
1515737298.5,34177,10.31,73460.3,-4.43,-6.19,-6.19,0,*55
1515737299.78,34178,10.31,73462.0,-4.43,-6.19,-6.19,0,*5A
1515737300.99,34179,10.31,73462.8,-4.43,-6.13,-6.09,0,*50
1515737302.18,34180,10.31,73462.5,-4.41,-6.09,-6.05,0,*53
1515737303.37,34181,10.31,73460.0,-4.41,-6.05,-6.09,0,*52